Flag for U.S.A. Weather past 2 weeks in Virginia Beach, Virginia, U.S.A.

Now
65 °F

Fog.


Feels Like: 65 °F
Forecast: 64 / 76 °F
Wind: No wind

Location: Virginia Beach - Oceana

Current Time: Sep 30, 2014 at 7:58:03 AM

Latest Report: Sep 30, 2014 at 6:56 AM


Visibility: 6 mi

Pressure: 29.92 "Hg

Humidity: 91%

Dew point: 62 °F

Location of Virginia BeachLocation

Historic Weather in Virginia Beach — Graph

°F

Virginia Beach temperature yesterday

Maximum temperature yesterday: 76 °F (at 11:56 AM)
Minimum temperature yesterday: 61 °F (at 4:56 AM)
Average temperature yesterday: 69 °F

Past Weeks' High & Low Weather Summary

 TemperatureHumidityPressure
High81 °F (Sep 16, 12:56 PM)97% (Sep 21, 3:56 AM)30.32 "Hg (Sep 21, 3:56 AM)
Low58 °F (Sep 28, 6:44 AM)42% (Sep 22, 12:56 PM)29.72 "Hg (Sep 21, 3:56 PM)
Average70 °F73%30.09 "Hg
* Reported Sep 15 6:56 AM — Sep 30 6:56 AM, Virginia Beach, Weather by CustomWeather, © 2014

Note: Actual official high and low records may vary slightly from our data, if they occured in-between our weather recording intervals... More about our weather records

Advertising

Virginia Beach weather history for previous 24 hours

 ConditionsComfort  
Time TempWeatherWind HumidityBarometerVisibility
6:56 AM
Sep 30
65 °FFog.No wind91%29.92 "Hg6 mi
5:56 AM67 °FPartly cloudy.No wind90%29.92 "Hg10 mi
4:56 AM66 °FPassing clouds.No wind93%29.90 "Hg10 mi
3:56 AM67 °FOvercast.No wind93%29.91 "Hg10 mi
2:56 AM67 °FMostly cloudy.No wind87%29.92 "Hg10 mi
1:56 AM67 °FLight rain. Mostly cloudy.3 mph85%29.94 "Hg7 mi
12:56 AM69 °FMostly cloudy.3 mph81%29.93 "Hg10 mi
11:56 PM
Sep 29
69 °FOvercast.No wind84%29.94 "Hg10 mi
10:56 PM69 °FOvercast.No wind84%29.96 "Hg10 mi
9:56 PM69 °FOvercast.5 mph84%29.95 "Hg10 mi
8:56 PM70 °FOvercast.No wind84%29.96 "Hg10 mi
7:56 PM71 °FOvercast.No wind78%29.96 "Hg10 mi
6:56 PM71 °FCloudy.6 mph76%29.95 "Hg10 mi
5:56 PM73 °FMore clouds than sun.6 mph71%29.96 "Hg10 mi
4:56 PM74 °FMostly cloudy.8 mph67%29.95 "Hg10 mi
3:56 PM75 °FMostly cloudy.7 mph66%29.95 "Hg10 mi
2:56 PM76 °FMostly cloudy.7 mph62%29.96 "Hg10 mi
1:56 PM76 °FMostly cloudy.7 mph64%29.97 "Hg10 mi
12:56 PM75 °FMostly cloudy.8 mph64%29.99 "Hg10 mi
11:56 AM76 °FPartly sunny.7 mph67%30.01 "Hg10 mi
10:56 AM75 °FPartly sunny.6 mph69%30.02 "Hg10 mi
9:56 AM71 °FFog.3 mph87%30.02 "Hg9 mi
8:56 AM68 °FFog.No wind87%30.03 "Hg5 mi
7:56 AM63 °FFog.No wind87%30.03 "Hg5 mi
Weather by CustomWeather, © 2014

See weather overviewHow to use our weather pages